Weather History for KVYS - April, 2012

Change the Weather History Date:

Friday, April 6, 2012

  Actual Average Record
Temperature  
Mean Temperature 46 °F -  
Max Temperature 60 °F 55 °F 85 °F (1988)
Min Temperature 32 °F 33 °F 18 °F (1979)
Degree Days  
Heating Degree Days 19    
Moisture  
Dew Point 28 °F    
Average Humidity 55    
Maximum Humidity 88    
Minimum Humidity 26    
Precipitation  
Precipitation 0.00 in - - ()
Sea Level Pressure  
Sea Level Pressure 30.22 in    
Wind  
Wind Speed 9 mph (ENE)    
Max Wind Speed 17 mph    
Max Gust Speed 21 mph    
Visibility 10 miles    
Events      
Averages and records for this station are not official NWS values.
T = Trace of Precipitation, MM = Missing Value Source: NWS Daily Summary

Daily Weather History Graph

Daily Weather History Graph

Search for Another Location

Airport or City:

Trip Planner

Search our weather history database for the weather conditions in past years. The results will help you decide how hot, cold, wet, or windy it might be!

Date:

Astronomy

Apr. 06, 2012 Rise Set
Actual Time 6:30 AM CDT 7:27 PM CDT
Civil Twilight 6:02 AM CDT 7:55 PM CDT
Nautical Twilight 5:29 AM CDT 8:29 PM CDT
Astronomical Twilight 4:54 AM CDT 9:04 PM CDT
Moon 7:48 PM CDT (4/6) 6:02 AM CDT (4/6)
Length of Visible Light 13h 53m
Length of Day
12h 57m
Full, 100% of the Moon is Illuminated
Apr 6
Full
Apr 6
Full
Apr 13
Last Quarter
Apr 21
New
Apr 29
First Quarter

Hourly Weather History & Observations

Time (CDT) Temp. Windchill Dew Point Humidity Pressure Visibility Wind Dir Wind Speed Gust Speed Precip Events Conditions
12:15 AM 35.6 °F 28.0 °F 26.1 °F 68% 30.16 in 10.0 mi NE 10.4 mph - N/A   Clear
12:35 AM 35.1 °F 29.3 °F 26.1 °F 70% 30.17 in 10.0 mi NE 6.9 mph - N/A   Clear
12:55 AM 34.5 °F 27.3 °F 25.7 °F 70% 30.17 in 10.0 mi NE 9.2 mph - N/A   Clear
1:15 AM 34.3 °F 27.7 °F 25.7 °F 71% 30.17 in 10.0 mi NE 8.1 mph - N/A   Clear
1:35 AM 34.3 °F 27.7 °F 26.4 °F 73% 30.18 in 10.0 mi NE 8.1 mph - N/A   Clear
1:55 AM 33.8 °F 27.0 °F 26.4 °F 74% 30.18 in 10.0 mi NE 8.1 mph - N/A   Clear
2:15 AM 33.8 °F 27.7 °F 26.4 °F 74% 30.18 in 10.0 mi NE 6.9 mph - N/A   Clear
2:35 AM 32.9 °F 25.9 °F 26.2 °F 76% 30.18 in 10.0 mi NE 8.1 mph - N/A   Clear
2:55 AM 33.1 °F 26.1 °F 26.4 °F 77% 30.18 in 10.0 mi NE 8.1 mph - N/A   Clear
3:15 AM 34.3 °F 25.5 °F 27.5 °F 76% 30.18 in 10.0 mi NE 12.7 mph - N/A   Clear
3:35 AM 34.3 °F 25.5 °F 27.5 °F 76% 30.18 in 10.0 mi NE 12.7 mph - N/A   Clear
3:55 AM 34.3 °F 25.5 °F 27.9 °F 77% 30.18 in 10.0 mi NE 12.7 mph - N/A   Clear
4:15 AM 34.3 °F 25.5 °F 28.2 °F 78% 30.18 in 10.0 mi ENE 12.7 mph - N/A   Clear
4:35 AM 34.3 °F 25.5 °F 28.4 °F 79% 30.18 in 10.0 mi ENE 12.7 mph - N/A   Clear
4:55 AM 34.3 °F 26.5 °F 28.9 °F 81% 30.19 in 10.0 mi NE 10.4 mph - N/A   Clear
5:15 AM 34.3 °F 27.0 °F 29.3 °F 82% 30.20 in 10.0 mi NE 9.2 mph - N/A   Clear
5:35 AM 33.1 °F 25.5 °F 28.9 °F 85% 30.21 in 10.0 mi ENE 9.2 mph - N/A   Clear
5:55 AM 33.1 °F 26.1 °F 28.9 °F 85% 30.22 in 10.0 mi ENE 8.1 mph - N/A   Clear
6:15 AM 32.0 °F 24.8 °F 28.2 °F 86% 30.23 in 10.0 mi NE 8.1 mph - N/A   Clear
6:35 AM 32.0 °F 26.4 °F 28.6 °F 87% 30.24 in 10.0 mi NE 5.8 mph - N/A   Clear
6:55 AM 32.7 °F 27.3 °F 29.5 °F 88% 30.25 in 10.0 mi NNE 5.8 mph - N/A   Clear
7:15 AM 34.7 °F 28.8 °F 30.7 °F 85% 30.26 in 10.0 mi NE 6.9 mph - N/A   Clear
7:35 AM 36.1 °F 29.3 °F 31.6 °F 84% 30.26 in 10.0 mi NE 9.2 mph - N/A   Clear
7:55 AM 38.3 °F 31.9 °F 32.0 °F 78% 30.27 in 10.0 mi NE 9.2 mph - N/A   Clear
8:15 AM 40.5 °F 34.1 °F 32.2 °F 72% 30.28 in 10.0 mi ENE 10.4 mph - N/A   Clear
8:35 AM 43.0 °F 35.7 °F 31.5 °F 64% 30.28 in 10.0 mi ENE 15.0 mph - N/A   Clear
8:55 AM 43.7 °F 36.6 °F 30.6 °F 60% 30.28 in 10.0 mi ENE 15.0 mph - N/A   Clear
9:15 AM 44.8 °F 37.4 °F 30.9 °F 58% 30.28 in 10.0 mi ENE 17.3 mph - N/A   Clear
9:35 AM 46.0 °F 40.2 °F 30.9 °F 56% 30.28 in 10.0 mi East 12.7 mph - N/A   Clear
9:55 AM 47.8 °F - 28.2 °F 47% 30.28 in 10.0 mi East 15.0 mph 20.7 mph N/A   Clear
10:15 AM 48.0 °F - 28.2 °F 46% 30.29 in 10.0 mi East 12.7 mph 20.7 mph N/A   Clear
10:35 AM 49.1 °F - 28.0 °F 44% 30.28 in 10.0 mi East 15.0 mph - N/A   Clear
10:55 AM 50.0 °F - 28.6 °F 44% 30.28 in 10.0 mi East 10.4 mph 19.6 mph N/A   Clear
11:15 AM 50.0 °F - 28.0 °F 43% 30.28 in 10.0 mi ESE 8.1 mph - N/A   Clear
11:35 AM 50.4 °F - 27.9 °F 42% 30.28 in 10.0 mi SE 8.1 mph - N/A   Clear
11:55 AM 51.8 °F - 29.5 °F 42% 30.28 in 10.0 mi SE 6.9 mph - N/A   Clear
12:15 PM 52.9 °F - 28.8 °F 40% 30.27 in 10.0 mi East 8.1 mph - N/A   Clear
12:35 PM 53.1 °F - 28.8 °F 39% 30.27 in 10.0 mi SE 8.1 mph - N/A   Clear
12:55 PM 54.3 °F - 27.3 °F 35% 30.27 in 10.0 mi East 6.9 mph - N/A   Clear
1:15 PM 54.7 °F - 27.7 °F 35% 30.26 in 10.0 mi SSE 4.6 mph - N/A   Clear
1:35 PM 55.6 °F - 26.6 °F 33% 30.25 in 10.0 mi East 8.1 mph 16.1 mph N/A   Clear
1:55 PM 57.6 °F - 27.0 °F 31% 30.25 in 10.0 mi East 9.2 mph - N/A   Clear
2:15 PM 57.4 °F - 27.3 °F 32% 30.23 in 10.0 mi East 9.2 mph - N/A   Clear
2:35 PM 57.6 °F - 25.5 °F 29% 30.23 in 10.0 mi ESE 6.9 mph - N/A   Clear
2:55 PM 58.8 °F - 27.1 °F 30% 30.23 in 10.0 mi ESE 9.2 mph - N/A   Clear
3:15 PM 59.0 °F - 25.9 °F 28% 30.22 in 10.0 mi ESE 9.2 mph - N/A   Clear
3:35 PM 59.9 °F - 26.6 °F 28% 30.21 in 10.0 mi SSE 5.8 mph - N/A   Clear
3:55 PM 59.9 °F - 24.3 °F 26% 30.20 in 10.0 mi ESE 9.2 mph - N/A   Clear
4:15 PM 60.3 °F - 26.4 °F 28% 30.20 in 10.0 mi East 5.8 mph - N/A   Clear
4:35 PM 60.8 °F - 26.6 °F 27% 30.20 in 10.0 mi East 8.1 mph - N/A   Clear
4:55 PM 60.3 °F - 26.1 °F 27% 30.20 in 10.0 mi East 5.8 mph - N/A   Clear
5:15 PM 59.9 °F - 26.6 °F 28% 30.19 in 10.0 mi ESE 6.9 mph - N/A   Clear
5:35 PM 60.8 °F - 26.6 °F 27% 30.19 in 10.0 mi ESE 5.8 mph - N/A   Clear
5:55 PM 59.9 °F - 27.3 °F 29% 30.19 in 10.0 mi ENE 5.8 mph - N/A   Clear
6:15 PM 59.9 °F - 27.3 °F 29% 30.19 in 10.0 mi East 6.9 mph - N/A   Clear
6:35 PM 58.8 °F - 27.9 °F 31% 30.19 in 10.0 mi East 6.9 mph - N/A   Clear
6:55 PM 57.6 °F - 27.1 °F 31% 30.18 in 10.0 mi East 9.2 mph - N/A   Clear
7:15 PM 55.8 °F - 27.1 °F 33% 30.18 in 10.0 mi East 6.9 mph - N/A   Clear
7:35 PM 53.6 °F - 26.8 °F 36% 30.18 in 5.0 mi East 9.2 mph - N/A   Haze
7:55 PM 53.1 °F - 28.9 °F 40% 30.19 in 10.0 mi ENE 10.4 mph - N/A   Clear
8:15 PM 52.0 °F - 29.5 °F 42% 30.19 in 10.0 mi East 11.5 mph - N/A   Clear
8:35 PM 50.4 °F - 29.8 °F 45% 30.19 in 10.0 mi East 11.5 mph - N/A   Clear
8:55 PM 49.3 °F - 30.0 °F 48% 30.19 in 10.0 mi East 10.4 mph - N/A   Clear
9:15 PM 49.1 °F - 30.7 °F 49% 30.20 in 10.0 mi East 10.4 mph - N/A   Clear
9:35 PM 47.8 °F - 30.9 °F 52% 30.20 in 10.0 mi East 10.4 mph - N/A   Clear
9:55 PM 47.1 °F - 31.1 °F 54% 30.20 in 10.0 mi East 8.1 mph - N/A   Clear
10:15 PM 45.7 °F 42.0 °F 30.9 °F 56% 30.20 in 10.0 mi East 6.9 mph - N/A   Clear
10:35 PM 44.6 °F 40.2 °F 30.4 °F 57% 30.20 in 10.0 mi East 8.1 mph - N/A   Clear
10:55 PM 43.9 °F 39.3 °F 30.4 °F 59% 30.20 in 10.0 mi East 8.1 mph - N/A   Clear
11:15 PM 43.7 °F 39.7 °F 30.2 °F 59% 30.20 in 10.0 mi East 6.9 mph - N/A   Clear
11:35 PM 42.4 °F 38.8 °F 30.0 °F 61% 30.21 in 10.0 mi East 5.8 mph - N/A   Clear
11:55 PM 42.1 °F 37.7 °F 30.7 °F 64% 30.21 in 10.0 mi East 6.9 mph - N/A   Clear